TimeEST,TemperatureF,Dew PointF,Humidity,Sea Level PressureIn,VisibilityMPH,Wind Direction,Wind SpeedMPH,Gust SpeedMPH,PrecipitationIn,Events,Conditions,WindDirDegrees,DateUTC
12:36 AM,30.2,28.4,93,30.01,3.0,West,10.4,-,0.00,Rain,Light Freezing Rain,280,2013-01-01 05:36:00
12:45 AM,30.2,28.4,93,30.01,2.5,West,11.5,-,0.00,Rain,Light Freezing Rain,260,2013-01-01 05:45:00
1:14 AM,30.2,28.4,93,29.99,3.0,WNW,9.2,-,0.00,Rain,Light Freezing Rain,290,2013-01-01 06:14:00
1:43 AM,30.2,28.4,93,29.99,4.0,West,8.1,-,0.00,,Overcast,280,2013-01-01 06:43:00
1:56 AM,30.0,28.9,96,30.03,5.0,West,8.1,-,0.00,,Overcast,280,2013-01-01 06:56:00
2:56 AM,30.0,28.0,92,30.03,6.0,West,6.9,-,N/A,,Overcast,270,2013-01-01 07:56:00
3:56 AM,30.0,28.0,92,30.04,5.0,West,5.8,-,N/A,,Overcast,260,2013-01-01 08:56:00
4:04 AM,30.2,28.4,93,30.00,6.0,West,4.6,-,N/A,,Overcast,280,2013-01-01 09:04:00
4:21 AM,30.2,28.4,93,30.00,5.0,West,5.8,-,N/A,,Overcast,270,2013-01-01 09:21:00
4:48 AM,30.2,28.4,93,29.99,5.0,West,5.8,-,N/A,,Overcast,280,2013-01-01 09:48:00
5:19 AM,30.2,26.6,86,29.99,5.0,West,4.6,-,N/A,,Overcast,270,2013-01-01 10:19:00
5:56 AM,28.9,27.0,92,30.03,5.0,WNW,5.8,-,N/A,,Overcast,290,2013-01-01 10:56:00
6:32 AM,28.4,26.6,93,30.00,4.0,NW,10.4,17.3,0.00,,Overcast,310,2013-01-01 11:32:00
6:40 AM,28.4,24.8,86,30.01,5.0,NNW,12.7,-,0.00,,Overcast,330,2013-01-01 11:40:00
7:24 AM,28.4,24.8,86,30.02,7.0,NNW,8.1,-,N/A,,Overcast,330,2013-01-01 12:24:00
7:56 AM,27.0,21.9,81,30.06,8.0,NNW,8.1,-,N/A,,Overcast,340,2013-01-01 12:56:00
8:28 AM,26.6,21.2,80,30.02,7.0,NNW,8.1,-,N/A,,Overcast,330,2013-01-01 13:28:00
8:56 AM,27.0,21.9,81,30.08,6.0,NW,6.9,-,N/A,,Haze,320,2013-01-01 13:56:00
9:56 AM,27.0,21.0,78,30.10,7.0,NNW,9.2,-,N/A,,Overcast,330,2013-01-01 14:56:00
11:56 AM,27.0,19.9,75,30.07,10.0,NNW,8.1,-,N/A,,Overcast,330,2013-01-01 16:56:00
12:48 PM,24.8,19.4,80,30.01,10.0,North,13.8,-,N/A,,Overcast,10,2013-01-01 17:48:00
12:56 PM,25.0,19.9,81,30.06,10.0,North,12.7,-,N/A,,Overcast,360,2013-01-01 17:56:00
1:25 PM,24.8,19.4,80,30.03,10.0,North,10.4,-,N/A,,Overcast,350,2013-01-01 18:25:00
1:56 PM,25.0,18.0,75,30.07,10.0,North,10.4,-,N/A,,Overcast,10,2013-01-01 18:56:00
2:56 PM,24.1,18.0,77,30.07,10.0,North,8.1,-,N/A,,Overcast,360,2013-01-01 19:56:00
4:56 PM,23.0,17.1,78,30.10,10.0,North,6.9,-,N/A,,Overcast,350,2013-01-01 21:56:00
5:56 PM,21.9,16.0,78,30.11,10.0,North,6.9,-,N/A,,Overcast,350,2013-01-01 22:56:00
6:56 PM,21.9,16.0,78,30.10,10.0,North,5.8,-,N/A,,Overcast,350,2013-01-01 23:56:00
7:56 PM,21.0,16.0,81,30.12,10.0,NW,3.5,-,N/A,,Overcast,320,2013-01-02 00:56:00
8:56 PM,19.9,14.0,78,30.12,10.0,WNW,5.8,-,N/A,,Overcast,300,2013-01-02 01:56:00
9:56 PM,17.1,10.9,77,30.13,10.0,West,3.5,-,N/A,,Overcast,280,2013-01-02 02:56:00
10:44 PM,12.2,6.8,79,30.08,10.0,West,4.6,-,N/A,,Scattered Clouds,280,2013-01-02 03:44:00
10:56 PM,10.9,6.1,81,30.15,10.0,West,4.6,-,N/A,,Clear,280,2013-01-02 03:56:00
11:56 PM,6.1,3.9,91,30.16,10.0,West,5.8,-,N/A,,Clear,260,2013-01-02 04:56:00